[[{"header":{"parameterUnit":"m.s-1","parameterCategory":2,"la1":30.2991,"la2":30.254,"lo1":-89.0895,"lo2":-89.0444,"dy":0.0017,"dx":0.0017,"nx":28,"ny":28,"refTime":"2025-03-19T09:00:00:Z","depth":"0","parameterNumber":2,"parameterNumberName":"U-component_of_CURRENTS"},"data":[0,0,0,0,0,0,0,0,0,0,0,0,0,0,0,0,0,0,0,0,0,0,0,0,0,0,0,0,0,0,0,0,0,0,0,0,0,0,0,0,0,0,0,0,0,0,0,0,0,0,0,0,0,0,0,0,0,0,0.2253,0.2253,0,0.2232,0.2232,0.2232,0.2224,0.2224,0.2224,0.2224,0.2217,0.2216,0.2216,0,0,0,0,0,0,0,0,0,0,0,0,0,0.2247,0.2247,0.2253,0.2253,0.2252,0.2232,0.2232,0.2232,0.2224,0.2224,0.2224,0.2224,0.2217,0.2216,0.2216,0,0,0,0,0,0,0,0,0,0,0,0,0,0.2241,0.2247,0.2253,0.2245,0.2244,0.2232,0.2232,0.2232,0.2224,0.2224,0.2224,0.2224,0.2217,0.2216,0.2216,0.2215,0,0,0.2215,0.2215,0,0,0,0,0,0,0,0,0.2241,0.2241,0.2247,0.2246,0.2245,0.223,0.2227,0.2227,0.2224,0.2233,0.2224,0.2224,0.2222,0.2221,0.2218,0.2214,0.2214,0.2215,0.2215,0.2215,0.2215,0,0,0,0,0,0,0,0.2242,0.2242,0.2246,0.2246,0.2245,0.223,0.2229,0.2227,0.2229,0.2232,0.2231,0.2228,0.2221,0.2219,0.2218,0.2214,0.2215,0.2215,0.2215,0.2215,0.2223,0.2223,0,0,0,0,0,0,0.2245,0.2243,0.2246,0.2245,0.2242,0.223,0.2229,0.2236,0.2228,0.2227,0.2228,0.2227,0.2219,0.2218,0.2218,0.223,0.2215,0.2215,0.2214,0.2223,0.2223,0.2223,0,0,0,0,0,0,0.2245,0.2246,0.2247,0.2242,0.2241,0.223,0.2237,0.2235,0.2232,0.2225,0.2224,0.2226,0.2219,0.2218,0.2214,0.2229,0.2215,0.2214,0.2222,0.2223,0.2223,0.2244,0,0,0,0,0,0,0.2245,0.2246,0.2251,0.2243,0.2241,0.2241,0.2237,0.2235,0.2229,0.2229,0.2223,0.2222,0.2219,0.2214,0.2214,0.2228,0.2214,0.2222,0.2222,0.2223,0.2243,0.2246,0.2248,0,0,0,0,0,0.2245,0.2255,0.2252,0.2252,0.2249,0.2241,0.224,0.2232,0.2229,0.2229,0.2223,0.2222,0.2219,0.2214,0.2213,0.2228,0.2221,0.2222,0.2223,0.2242,0.2245,0.2248,0,0,0,0,0,0,0.2248,0.2255,0.2251,0.2261,0.2251,0.224,0.2241,0.2232,0.2227,0.2228,0.2221,0.222,0.223,0.2221,0.2215,0.2233,0.2223,0.2223,0.2238,0.224,0.2243,0.2284,0.2214,0,0,0,0,0,0.2252,0.2263,0.2259,0.2261,0.2264,0.2251,0.2247,0.224,0.2233,0.223,0.2227,0.2226,0.2233,0.2228,0.2234,0.2233,0.2279,0.2244,0.2246,0.2248,0.2281,0.238,0.2396,0.2226,0.2226,0.2226,0,0,0.2248,0.2255,0.2258,0.2262,0.2258,0.2258,0.225,0.2244,0.2243,0.2231,0.2235,0.2238,0.2237,0.2245,0.2247,0.2236,0.2311,0.2249,0.2251,0.2283,0.2383,0.24,0.2415,0.2227,0.2227,0.2227,0,0,0.2242,0.2259,0.2264,0.2263,0.2259,0.2261,0.226,0.2253,0.2255,0.2252,0.2253,0.2272,0.2258,0.2276,0.2279,0.2297,0.2329,0.2284,0.232,0.2415,0.2431,0.2446,0.2494,0.2513,0.2276,0.2276,0.2276,0,0.223,0.2243,0.2259,0.2261,0.2262,0.2264,0.2262,0.2266,0.2256,0.2273,0.2257,0.2297,0.2286,0.2326,0.2326,0.2308,0.2351,0.2307,0.2422,0.2438,0.2453,0.2499,0.252,0.2277,0.2277,0.2276,0.2276,0,0.2227,0.2235,0.2239,0.2251,0.2257,0.2255,0.2267,0.2282,0.2288,0.2297,0.2342,0.2344,0.2378,0.2365,0.2345,0.2434,0.2426,0.2423,0.2422,0.2472,0.2516,0.2537,0.2278,0.2278,0.2278,0.2277,0,0,0.2185,0.223,0.2223,0.2237,0.2252,0.2258,0.2282,0.2312,0.2354,0.2359,0.2421,0.2427,0.2454,0.2462,0.2453,0.2517,0.2629,0.2508,0.2512,0.2567,0.2818,0.2633,0.2639,0.2652,0.2656,0.266,0.2796,0,0.2166,0.218,0.2206,0.2217,0.2229,0.2262,0.2292,0.2325,0.2365,0.2431,0.2467,0.2521,0.2481,0.251,0.257,0.263,0.2692,0.2591,0.2753,0.2758,0.2598,0.266,0.2506,0.26,0.2817,0.2821,0.2823,0,0.2137,0.2159,0.2169,0.2226,0.2236,0.2249,0.2329,0.236,0.2458,0.2496,0.2572,0.2611,0.2703,0.2668,0.282,0.2759,0.2798,0.2834,0.2841,0.2687,0.2614,0.2591,0.2631,0.2581,0.2856,0.2854,0.2851,0,0.2093,0.2128,0.2143,0.2154,0.2219,0.2244,0.229,0.2378,0.2433,0.256,0.2625,0.2734,0.2796,0.2898,0.2937,0.291,0.31,0.3074,0.2946,0.2932,0.2843,0.2812,0.2869,0.3207,0.3207,0.3206,0.3206,0,0.2054,0.2065,0.2128,0.2132,0.2178,0.2232,0.23,0.2371,0.2488,0.2569,0.2663,0.274,0.2863,0.2959,0.3005,0.3025,0.316,0.2979,0.2971,0.2834,0.2803,0.2786,0.2749,0.3211,0.321,0.3209,0.3208,0,0.1994,0.203,0.2059,0.2128,0.2154,0.219,0.2295,0.2361,0.2474,0.2592,0.2642,0.2783,0.2885,0.2971,0.3122,0.3078,0.3028,0.3112,0.2905,0.2866,0.2636,0.2604,0.248,0.2431,0.3008,0.3004,0.3001,0,0.197,0.1975,0.2043,0.2074,0.2103,0.2167,0.222,0.2337,0.2412,0.2598,0.2656,0.2784,0.2822,0.294,0.292,0.296,0.291,0.2823,0.2728,0.2616,0.2581,0.2424,0.2385,0.2628,0.2622,0.2618,0.2614,0,0.1928,0.1947,0.1974,0.2038,0.2087,0.2141,0.2225,0.2269,0.2417,0.2499,0.2598,0.2644,0.2708,0.2642,0.2653,0.2665,0.2629,0.2717,0.2708,0.2367,0.2105,0.2055,0.2522,0.2571,0.2576,0.2579,0.2581,0.2583,0.19,0.1905,0.1947,0.2002,0.2061,0.2099,0.21,0.2182,0.2247,0.2327,0.2442,0.2435,0.2442,0.2398,0.2394,0.2275,0.2278,0.2208,0.2208,0.2082,0.193,0.2245,0.2198,0.22,0.2202,0.2204,0.2205,0,0.1859,0.1871,0.192,0.1963,0.1993,0.2044,0.2095,0.207,0.2068,0.2139,0.2161,0.2123,0.2034,0.2053,0.1951,0.1833,0.1751,0.1785,0.1621,0.1639,0.2045,0.1923,0.1684,0.1684,0.1684,0.1684,0.1684,0.1684,0.1841,0.1845,0.1862,0.1883,0.191,0.189,0.1881,0.1848,0.1859,0.1793,0.1751,0.1766,0.181,0.1693,0.1586,0.1557,0.1469,0.1254,0.1347,0.1721,0.1764,0.1804,0.1686,0.1401,0.14,0.0858,0.0854,0.0851]},{"header":{"parameterUnit":"m.s-1","parameterCategory":2,"la1":30.2991,"la2":30.254,"lo1":-89.0895,"lo2":-89.0444,"dy":0.0017,"dx":0.0017,"nx":28,"ny":28,"refTime":"2025-03-19T09:00:00:Z","depth":"0","parameterNumber":3,"parameterNumberName":"V-component_of_CURRENTS"},"data":[0,0,0,0,0,0,0,0,0,0,0,0,0,0,0,0,0,0,0,0,0,0,0,0,0,0,0,0,0,0,0,0,0,0,0,0,0,0,0,0,0,0,0,0,0,0,0,0,0,0,0,0,0,0,0,0,0,0,0.0402,0.0403,0,0.0407,0.0407,0.0407,0.0407,0.0407,0.0407,0.0407,0.0402,0.0402,0.0402,0,0,0,0,0,0,0,0,0,0,0,0,0,0.0369,0.037,0.0402,0.0403,0.0403,0.0407,0.0407,0.0407,0.0407,0.0407,0.0407,0.0407,0.0402,0.0402,0.0402,0,0,0,0,0,0,0,0,0,0,0,0,0,0.038,0.037,0.0402,0.0403,0.0403,0.0407,0.0407,0.0407,0.0407,0.0407,0.0407,0.0407,0.0402,0.0402,0.0402,0.0403,0,0,0.0402,0.0402,0,0,0,0,0,0,0,0,0.0379,0.0381,0.0403,0.0403,0.0403,0.0406,0.0393,0.0405,0.0407,0.0406,0.0407,0.0407,0.0403,0.0403,0.0404,0.0403,0.0402,0.0402,0.0402,0.0402,0.0402,0,0,0,0,0,0,0,0.0378,0.038,0.0404,0.0403,0.0403,0.0395,0.0396,0.0395,0.0405,0.0406,0.0406,0.0406,0.0403,0.0404,0.0404,0.0402,0.0402,0.0402,0.0402,0.0402,0.0402,0.0402,0,0,0,0,0,0,0.0379,0.038,0.0404,0.0404,0.0391,0.0395,0.0397,0.0405,0.0405,0.0405,0.0406,0.0406,0.0404,0.0404,0.0403,0.0422,0.0402,0.0401,0.0401,0.0402,0.0402,0.0402,0,0,0,0,0,0,0.0379,0.0382,0.0404,0.0392,0.0394,0.0396,0.0405,0.0406,0.0408,0.0405,0.0405,0.0408,0.0404,0.0404,0.0408,0.0421,0.0401,0.0401,0.0402,0.0402,0.0402,0.0447,0,0,0,0,0,0,0.0378,0.0382,0.0387,0.0392,0.0395,0.0409,0.0405,0.0406,0.0408,0.0408,0.0407,0.0406,0.0404,0.0408,0.0408,0.0421,0.0401,0.0402,0.0402,0.0402,0.0446,0.0449,0.0452,0,0,0,0,0,0.0377,0.0387,0.0388,0.0391,0.0403,0.0409,0.0409,0.041,0.0408,0.0411,0.0412,0.0406,0.0408,0.0408,0.0408,0.0421,0.0402,0.0402,0.0402,0.0445,0.0449,0.0452,0,0,0,0,0,0,0.0379,0.0389,0.0389,0.0403,0.0406,0.0409,0.0413,0.0411,0.0414,0.0413,0.0411,0.041,0.0419,0.0409,0.0409,0.0419,0.0403,0.0403,0.0435,0.0439,0.0442,0.0467,0.0401,0,0,0,0,0,0.0382,0.039,0.0396,0.0407,0.041,0.0411,0.0413,0.0412,0.0415,0.0416,0.0417,0.0415,0.0419,0.042,0.042,0.0426,0.0427,0.0431,0.0434,0.0437,0.0456,0.0479,0.0487,0.0403,0.0403,0.0403,0,0,0.0385,0.0391,0.0396,0.0407,0.0411,0.0422,0.0412,0.0417,0.0428,0.0415,0.0432,0.0428,0.0423,0.0434,0.0436,0.0428,0.0455,0.0437,0.044,0.0458,0.048,0.0489,0.0496,0.0403,0.0403,0.0403,0,0,0.0397,0.0404,0.0414,0.0419,0.0423,0.0427,0.0429,0.0434,0.0439,0.0449,0.0445,0.0455,0.0452,0.0462,0.0464,0.0482,0.0471,0.0469,0.0508,0.053,0.0538,0.0545,0.0532,0.0538,0.047,0.047,0.047,0,0.04,0.0418,0.0417,0.0429,0.044,0.0432,0.0449,0.0452,0.0457,0.0476,0.0458,0.0485,0.0472,0.0508,0.0508,0.0493,0.049,0.0497,0.0537,0.0544,0.055,0.0536,0.0542,0.0472,0.0472,0.0472,0.0472,0,0.0424,0.0434,0.0441,0.0458,0.0469,0.0479,0.0487,0.0498,0.0501,0.0513,0.0546,0.0537,0.0563,0.0548,0.0531,0.0571,0.0547,0.054,0.0534,0.0562,0.0544,0.0549,0.0475,0.0475,0.0474,0.0473,0,0,0.0441,0.0455,0.0457,0.0474,0.0485,0.0501,0.0523,0.0555,0.0597,0.0589,0.0651,0.0636,0.0645,0.0647,0.0632,0.0638,0.066,0.0607,0.0607,0.0605,0.0686,0.0652,0.0653,0.0662,0.0664,0.0665,0.0646,0,0.046,0.0487,0.0493,0.0526,0.0544,0.0554,0.059,0.0617,0.064,0.0696,0.0694,0.0741,0.0679,0.0705,0.0701,0.0686,0.068,0.0664,0.065,0.0649,0.0625,0.0661,0.0673,0.0656,0.0651,0.0652,0.0653,0,0.0486,0.05,0.0533,0.0578,0.0592,0.0614,0.0687,0.0719,0.0783,0.0811,0.0848,0.0856,0.0877,0.0823,0.0803,0.0796,0.0745,0.0714,0.0713,0.0677,0.0626,0.0631,0.0666,0.0696,0.066,0.066,0.0659,0,0.0507,0.0535,0.0565,0.0576,0.0622,0.0652,0.0688,0.0754,0.0822,0.0895,0.0962,0.0971,0.1004,0.0953,0.087,0.0849,0.084,0.0807,0.072,0.0715,0.0722,0.0716,0.08,0.0794,0.0794,0.0794,0.0794,0,0.0531,0.0555,0.0576,0.0593,0.0657,0.0684,0.0776,0.0818,0.0924,0.1033,0.103,0.1109,0.104,0.1023,0.0924,0.084,0.0881,0.0743,0.0724,0.0733,0.0728,0.075,0.0728,0.0793,0.0793,0.0793,0.0793,0,0.055,0.0558,0.06,0.0646,0.0665,0.0716,0.083,0.0919,0.0998,0.1143,0.1181,0.123,0.1201,0.1105,0.1026,0.0922,0.0835,0.0788,0.0783,0.0764,0.0707,0.0685,0.0709,0.0719,0.0707,0.0706,0.0706,0,0.0561,0.058,0.0634,0.0671,0.069,0.0767,0.0846,0.0946,0.1061,0.1217,0.1309,0.1322,0.1343,0.12,0.1022,0.0856,0.0828,0.0754,0.0718,0.0727,0.0689,0.068,0.0687,0.0729,0.0729,0.0729,0.0728,0,0.0586,0.0604,0.0639,0.0714,0.0785,0.0886,0.1004,0.1105,0.1253,0.1364,0.1497,0.1517,0.1386,0.1245,0.1014,0.0881,0.0782,0.0741,0.0777,0.0743,0.0716,0.0708,0.0692,0.0726,0.0726,0.0726,0.0726,0.0726,0.0606,0.0637,0.0689,0.0765,0.0862,0.1007,0.1106,0.1245,0.1413,0.1587,0.1602,0.1635,0.1466,0.1155,0.0997,0.0774,0.0752,0.0717,0.0694,0.0689,0.0701,0.0659,0.0655,0.0655,0.0654,0.0654,0.0654,0,0.0628,0.0669,0.0743,0.0853,0.098,0.1025,0.1224,0.1337,0.1513,0.1633,0.1714,0.1671,0.1451,0.1225,0.0924,0.0788,0.0734,0.0723,0.0747,0.0758,0.0758,0.0765,0.0754,0.0754,0.0754,0.0754,0.0754,0.0754,0.0641,0.0702,0.0742,0.093,0.1027,0.1213,0.1328,0.1474,0.1596,0.1731,0.1772,0.1801,0.172,0.1204,0.0939,0.0844,0.0822,0.0743,0.075,0.0782,0.0781,0.0781,0.0789,0.0783,0.0783,0.0795,0.0795,0.0794]}],[{"header":{"parameterUnit":"m.s-1","parameterCategory":2,"la1":30.2991,"la2":30.254,"lo1":-89.0895,"lo2":-89.0444,"dy":0.0017,"dx":0.0017,"nx":28,"ny":28,"refTime":"2025-03-19T09:00:00:Z","depth":"2","parameterNumber":2,"parameterNumberName":"U-component_of_CURRENTS"},"data":[0,0,0,0,0,0,0,0,0,0,0,0,0,0,0,0,0,0,0,0,0,0,0,0,0,0,0,0,0,0,0,0,0,0,0,0,0,0,0,0,0,0,0,0,0,0,0,0,0,0,0,0,0,0,0,0,0,0,0.2118,0.2118,0,0.2126,0.2126,0.2126,0.2132,0.2132,0.2133,0.2133,0.2132,0.2131,0.2131,0,0,0,0,0,0,0,0,0,0,0,0,0,0.2112,0.2112,0.2118,0.2118,0.2118,0.2126,0.2126,0.2126,0.2132,0.2132,0.2133,0.2133,0.2132,0.2131,0.2131,0,0,0,0,0,0,0,0,0,0,0,0,0,0.2116,0.2112,0.2118,0.2123,0.2123,0.2126,0.2126,0.2126,0.2132,0.2132,0.2133,0.2133,0.2132,0.2131,0.2131,0.2125,0,0,0.213,0.213,0,0,0,0,0,0,0,0,0.2115,0.2116,0.2122,0.2123,0.2123,0.213,0.2124,0.2126,0.2132,0.2128,0.2133,0.2133,0.2131,0.213,0.213,0.2125,0.2125,0.213,0.213,0.213,0.213,0,0,0,0,0,0,0,0.2115,0.2115,0.212,0.2122,0.2123,0.2127,0.2128,0.2124,0.2127,0.2128,0.2129,0.2132,0.2131,0.213,0.213,0.2125,0.213,0.213,0.213,0.213,0.2138,0.2138,0,0,0,0,0,0,0.2116,0.2115,0.212,0.212,0.2121,0.2127,0.2128,0.2126,0.2127,0.2128,0.2131,0.2132,0.2131,0.213,0.213,0.215,0.213,0.213,0.213,0.2137,0.2138,0.2138,0,0,0,0,0,0,0.2116,0.2116,0.2119,0.2119,0.212,0.2127,0.2125,0.2126,0.2131,0.213,0.213,0.2136,0.2131,0.213,0.2131,0.2149,0.213,0.2129,0.2137,0.2138,0.2138,0.2173,0,0,0,0,0,0,0.2115,0.2116,0.2127,0.2119,0.212,0.2125,0.2125,0.2126,0.2133,0.2134,0.2134,0.2134,0.2131,0.2131,0.213,0.2149,0.2129,0.2137,0.2137,0.2138,0.2172,0.2175,0.2178,0,0,0,0,0,0.2115,0.2131,0.2127,0.2129,0.2131,0.2125,0.2126,0.2131,0.2133,0.2136,0.2135,0.2134,0.2135,0.2131,0.213,0.2149,0.2136,0.2137,0.2138,0.217,0.2174,0.2178,0,0,0,0,0,0,0.2128,0.2133,0.2129,0.2143,0.2135,0.2127,0.2137,0.2133,0.2135,0.2138,0.2134,0.2133,0.2149,0.2136,0.2132,0.2152,0.2137,0.2138,0.2163,0.2166,0.2169,0.2202,0.2129,0,0,0,0,0,0.2137,0.2149,0.2142,0.2149,0.2149,0.2141,0.2144,0.2141,0.2137,0.2139,0.2141,0.2142,0.215,0.2147,0.2154,0.2154,0.2191,0.2167,0.217,0.2172,0.2198,0.2288,0.2303,0.2141,0.2141,0.2141,0,0,0.2138,0.2146,0.215,0.2153,0.2149,0.2148,0.2143,0.2145,0.2148,0.2138,0.2151,0.2158,0.2155,0.2167,0.2171,0.2157,0.2229,0.2173,0.2176,0.2201,0.2291,0.2307,0.2321,0.2142,0.2142,0.2141,0,0,0.2138,0.2156,0.216,0.216,0.216,0.216,0.216,0.2156,0.2162,0.2166,0.2171,0.2193,0.2185,0.2201,0.2204,0.2225,0.2251,0.2217,0.2251,0.2337,0.2353,0.2366,0.2404,0.2421,0.2209,0.2209,0.2209,0,0.2136,0.2144,0.2158,0.2159,0.2165,0.2165,0.2162,0.2169,0.2166,0.2188,0.2175,0.222,0.2211,0.2251,0.2254,0.2237,0.2276,0.2237,0.2346,0.236,0.2374,0.241,0.2428,0.221,0.221,0.221,0.221,0,0.213,0.2142,0.2145,0.2151,0.2161,0.216,0.2169,0.2188,0.2199,0.2216,0.2266,0.2268,0.2304,0.2294,0.2276,0.236,0.2351,0.235,0.2343,0.2393,0.2426,0.2444,0.2213,0.2212,0.2212,0.2211,0,0,0.2095,0.2133,0.2131,0.2146,0.2159,0.2167,0.2189,0.222,0.2266,0.2277,0.2343,0.2352,0.2383,0.2389,0.2383,0.2437,0.2542,0.2431,0.2435,0.248,0.2712,0.2532,0.2534,0.257,0.2574,0.2577,0.2686,0,0.2075,0.2089,0.2114,0.2131,0.214,0.2172,0.2205,0.2243,0.2284,0.2354,0.2387,0.2446,0.2409,0.2441,0.2494,0.2554,0.2598,0.2511,0.2647,0.2651,0.2496,0.2553,0.2318,0.2381,0.2704,0.2707,0.271,0,0.2047,0.207,0.2081,0.2148,0.2158,0.2174,0.2256,0.2292,0.239,0.2428,0.2502,0.2542,0.2631,0.259,0.2729,0.2681,0.2701,0.2727,0.2732,0.2573,0.2506,0.2389,0.2403,0.2741,0.2738,0.2736,0.2734,0,0.2011,0.2051,0.2069,0.2081,0.2149,0.2177,0.2227,0.2316,0.2376,0.2497,0.2561,0.2668,0.2729,0.2814,0.2839,0.2819,0.2976,0.2958,0.2806,0.2793,0.2623,0.2586,0.3055,0.3055,0.3055,0.3054,0.3054,0,0.1978,0.1997,0.2059,0.2066,0.2122,0.2179,0.2255,0.2324,0.2441,0.2526,0.2611,0.268,0.2795,0.2875,0.2904,0.2902,0.3034,0.2833,0.2823,0.2619,0.2582,0.2921,0.2904,0.3058,0.3058,0.3057,0.3056,0,0.1928,0.1962,0.1997,0.2071,0.2099,0.2146,0.2259,0.233,0.2442,0.2559,0.2607,0.2733,0.2826,0.2893,0.3014,0.2953,0.2992,0.2941,0.2657,0.2609,0.2739,0.2723,0.2832,0.2827,0.2823,0.2819,0.2816,0,0.1907,0.1913,0.1987,0.2024,0.2056,0.2132,0.2191,0.2311,0.2388,0.2567,0.2623,0.274,0.2752,0.2834,0.279,0.2797,0.2893,0.2551,0.2456,0.2745,0.2725,0.2715,0.2705,0.225,0.2243,0.2237,0.2232,0,0.1868,0.189,0.1921,0.1996,0.2053,0.2114,0.2206,0.2252,0.2402,0.2472,0.2551,0.2574,0.2607,0.2469,0.2442,0.2424,0.2538,0.2421,0.2862,0.2307,0.2195,0.2175,0.2185,0.2178,0.2183,0.2187,0.219,0.2192,0.1844,0.1852,0.19,0.1966,0.2036,0.2081,0.2086,0.2162,0.2219,0.2269,0.2367,0.2291,0.2282,0.2091,0.203,0.1993,0.2172,0.208,0.2101,0.2128,0.2006,0.1888,0.179,0.1793,0.1795,0.1798,0.18,0,0.1804,0.182,0.1879,0.1935,0.198,0.2033,0.2087,0.2045,0.2021,0.2044,0.2022,0.1792,0.1654,0.1684,0.1512,0.1479,0.1504,0.1439,0.1461,0.1514,0.1562,0.1413,0.1039,0.1037,0.1035,0.1033,0,0,0.1786,0.1794,0.1814,0.1857,0.19,0.1883,0.1872,0.1794,0.1763,0.1628,0.1534,0.1566,0.1598,0.1293,0.1246,0.1113,0.1318,0.107,0.1678,0.1757,0.1803,0.1922,0.175,0,0,0,0,0]},{"header":{"parameterUnit":"m.s-1","parameterCategory":2,"la1":30.2991,"la2":30.254,"lo1":-89.0895,"lo2":-89.0444,"dy":0.0017,"dx":0.0017,"nx":28,"ny":28,"refTime":"2025-03-19T09:00:00:Z","depth":"2","parameterNumber":3,"parameterNumberName":"V-component_of_CURRENTS"},"data":[0,0,0,0,0,0,0,0,0,0,0,0,0,0,0,0,0,0,0,0,0,0,0,0,0,0,0,0,0,0,0,0,0,0,0,0,0,0,0,0,0,0,0,0,0,0,0,0,0,0,0,0,0,0,0,0,0,0,0.0247,0.0247,0,0.0265,0.0265,0.0265,0.0276,0.0276,0.0276,0.0276,0.0268,0.0268,0.0268,0,0,0,0,0,0,0,0,0,0,0,0,0,0.0223,0.0223,0.0247,0.0247,0.0247,0.0265,0.0265,0.0265,0.0276,0.0276,0.0276,0.0276,0.0269,0.0268,0.0268,0,0,0,0,0,0,0,0,0,0,0,0,0,0.0235,0.0223,0.0247,0.0256,0.0257,0.0265,0.0265,0.0265,0.0276,0.0276,0.0276,0.0277,0.0269,0.0268,0.0268,0.026,0,0,0.0266,0.0266,0,0,0,0,0,0,0,0,0.0235,0.0236,0.0254,0.0255,0.0256,0.0269,0.0254,0.0263,0.0276,0.0268,0.0276,0.0277,0.0267,0.0266,0.0268,0.026,0.026,0.0266,0.0266,0.0266,0.0265,0,0,0,0,0,0,0,0.0234,0.0235,0.0253,0.0254,0.0256,0.0259,0.0261,0.0255,0.0265,0.0268,0.0269,0.0273,0.0267,0.0269,0.0268,0.0259,0.0266,0.0266,0.0265,0.0265,0.0259,0.0259,0,0,0,0,0,0,0.0233,0.0234,0.0252,0.0254,0.0247,0.0259,0.0262,0.0264,0.0265,0.0266,0.0273,0.0273,0.027,0.0269,0.0268,0.0289,0.0266,0.0265,0.0265,0.0258,0.0259,0.0259,0,0,0,0,0,0,0.0233,0.0235,0.0252,0.0245,0.0248,0.026,0.0262,0.0264,0.0271,0.0269,0.0269,0.0279,0.027,0.0269,0.0274,0.0287,0.0265,0.0264,0.0258,0.0258,0.0259,0.0311,0,0,0,0,0,0,0.0232,0.0234,0.0242,0.0245,0.0248,0.0261,0.0262,0.0265,0.0273,0.0275,0.0274,0.0273,0.027,0.0275,0.0273,0.0286,0.0264,0.0258,0.0258,0.0259,0.0309,0.0313,0.0316,0,0,0,0,0,0.0231,0.0242,0.0243,0.0245,0.0257,0.0261,0.0263,0.0271,0.0274,0.0278,0.0282,0.0274,0.0275,0.0275,0.0273,0.0286,0.0258,0.0258,0.0259,0.0308,0.0312,0.0316,0,0,0,0,0,0,0.0241,0.0245,0.0245,0.0258,0.026,0.0263,0.0273,0.0274,0.028,0.0282,0.0279,0.0278,0.0288,0.0275,0.0274,0.0282,0.0263,0.0263,0.0301,0.0305,0.0309,0.0326,0.0264,0,0,0,0,0,0.0245,0.0252,0.0254,0.0264,0.0266,0.0268,0.0274,0.0276,0.0279,0.0283,0.0285,0.0284,0.0286,0.0287,0.0285,0.0289,0.0281,0.0293,0.0297,0.03,0.0311,0.0323,0.033,0.026,0.026,0.026,0,0,0.0251,0.0255,0.0259,0.0266,0.0269,0.0278,0.0272,0.0279,0.0291,0.028,0.03,0.0298,0.029,0.0301,0.0303,0.0293,0.031,0.03,0.0304,0.0313,0.0324,0.0331,0.0338,0.026,0.026,0.026,0,0,0.0264,0.027,0.0278,0.0281,0.0286,0.0288,0.029,0.0296,0.0304,0.0316,0.0315,0.0325,0.0322,0.0329,0.0328,0.0347,0.033,0.0338,0.0372,0.0384,0.039,0.0396,0.0376,0.0379,0.0339,0.0339,0.0339,0,0.0273,0.0284,0.0281,0.0291,0.0303,0.0294,0.0309,0.0312,0.0321,0.0341,0.0327,0.0352,0.0339,0.0367,0.0371,0.0358,0.0351,0.036,0.0391,0.0396,0.0401,0.0379,0.0383,0.0342,0.0342,0.0341,0.0341,0,0.0291,0.0302,0.0308,0.0318,0.0328,0.0338,0.0343,0.0356,0.0363,0.0377,0.0408,0.0398,0.0422,0.0408,0.0394,0.0425,0.0403,0.0397,0.0386,0.0412,0.0386,0.0389,0.0346,0.0345,0.0344,0.0343,0,0,0.0312,0.0318,0.0323,0.0339,0.0346,0.0362,0.0379,0.0408,0.045,0.0443,0.0502,0.0486,0.0498,0.0497,0.0484,0.048,0.0493,0.0454,0.0454,0.0444,0.05,0.0471,0.047,0.0499,0.05,0.0501,0.0462,0,0.033,0.0352,0.0355,0.0389,0.0403,0.0411,0.0444,0.047,0.0493,0.0546,0.0538,0.0585,0.0527,0.0555,0.0542,0.0528,0.0505,0.0503,0.0468,0.0466,0.0447,0.0475,0.046,0.0424,0.0464,0.0464,0.0464,0,0.0355,0.0367,0.0396,0.0441,0.0454,0.0476,0.0545,0.0577,0.0633,0.066,0.0691,0.0698,0.0712,0.0656,0.0624,0.0629,0.0564,0.0525,0.0523,0.0484,0.0444,0.0406,0.0426,0.0468,0.0468,0.0468,0.0467,0,0.0382,0.0408,0.0436,0.0446,0.0487,0.0518,0.0555,0.0615,0.0682,0.0746,0.081,0.081,0.0841,0.0775,0.0684,0.0669,0.063,0.0605,0.0502,0.0497,0.0472,0.0464,0.0559,0.0559,0.0559,0.0559,0.0559,0,0.0409,0.0436,0.0451,0.0469,0.0533,0.0559,0.0652,0.069,0.0789,0.0894,0.0883,0.095,0.0875,0.0843,0.0732,0.0632,0.0668,0.0516,0.0498,0.0485,0.048,0.0512,0.0507,0.0557,0.0558,0.0558,0.0558,0,0.0435,0.044,0.0481,0.0524,0.0543,0.0598,0.0712,0.0801,0.0875,0.1012,0.1048,0.1079,0.1044,0.0932,0.0828,0.071,0.0605,0.0541,0.0514,0.0493,0.0445,0.0443,0.0451,0.0449,0.0449,0.0448,0.0447,0,0.0449,0.0466,0.0518,0.0557,0.0577,0.0657,0.0736,0.0833,0.0946,0.1087,0.1173,0.1175,0.1168,0.0996,0.0812,0.0623,0.0592,0.0466,0.0435,0.046,0.044,0.044,0.0439,0.0406,0.0405,0.0405,0.0404,0,0.0475,0.0494,0.0527,0.0604,0.0678,0.0779,0.0898,0.0996,0.114,0.1235,0.1342,0.1335,0.1187,0.0998,0.0744,0.0608,0.0505,0.0445,0.0505,0.0438,0.0416,0.0397,0.0399,0.0397,0.0398,0.0398,0.0399,0.0399,0.0499,0.0529,0.0581,0.0659,0.076,0.0904,0.1002,0.1128,0.1281,0.1415,0.1413,0.1364,0.1178,0.0833,0.064,0.0444,0.0468,0.0362,0.0365,0.0369,0.0374,0.0352,0.032,0.032,0.032,0.032,0.032,0,0.0521,0.0561,0.0638,0.0751,0.088,0.093,0.1123,0.1208,0.1356,0.1412,0.1443,0.1194,0.0997,0.0792,0.0502,0.0328,0.031,0.0257,0.0276,0.0284,0.029,0.0292,0.0215,0.0214,0.0213,0.0213,0,0,0.0533,0.0592,0.063,0.0823,0.093,0.1105,0.1215,0.1303,0.1364,0.136,0.1304,0.1244,0.1015,0.0769,0.0553,0.0392,0.0372,0.0346,0.0447,0.0503,0.0512,0.0366,0.0379,0,0,0,0,0]}],[{"header":{"parameterUnit":"m.s-1","parameterCategory":2,"la1":30.2991,"la2":30.254,"lo1":-89.0895,"lo2":-89.0444,"dy":0.0017,"dx":0.0017,"nx":28,"ny":28,"refTime":"2025-03-19T09:00:00:Z","depth":"4","parameterNumber":2,"parameterNumberName":"U-component_of_CURRENTS"},"data":[0,0,0,0,0,0,0,0,0,0,0,0,0,0,0,0,0,0,0,0,0,0,0,0,0,0,0,0,0,0,0,0,0,0,0,0,0,0,0,0,0,0,0,0,0,0,0,0,0,0,0,0,0,0,0,0,0,0,0.1099,0.11,0,0.1113,0.1113,0.1113,0.114,0.1141,0.1141,0.1142,0.1135,0.1134,0.1134,0,0,0,0,0,0,0,0,0,0,0,0,0,0.1119,0.1118,0.1099,0.11,0.11,0.1113,0.1113,0.1113,0.114,0.1141,0.1142,0.1143,0.1136,0.1135,0.1133,0,0,0,0,0,0,0,0,0,0,0,0,0,0.1116,0.1118,0.1099,0.1118,0.112,0.1113,0.1113,0.1113,0.1139,0.1141,0.1142,0.1143,0.1136,0.1135,0.1133,0.1099,0,0,0.1129,0.1128,0,0,0,0,0,0,0,0,0.1116,0.1115,0.1114,0.1116,0.1119,0.1129,0.1118,0.1109,0.1139,0.1128,0.1142,0.1144,0.1133,0.1132,0.1127,0.1099,0.1099,0.1129,0.1128,0.1127,0.1127,0,0,0,0,0,0,0,0.1117,0.1115,0.1101,0.1115,0.1118,0.1134,0.1134,0.1116,0.112,0.1129,0.1132,0.1139,0.1133,0.1128,0.1127,0.1099,0.1129,0.1128,0.1127,0.1126,0.1172,0.1174,0,0,0,0,0,0,0.1119,0.1115,0.1101,0.1102,0.1125,0.1132,0.1133,0.1122,0.1121,0.1123,0.1138,0.114,0.113,0.1129,0.1127,0.1168,0.1127,0.1126,0.1125,0.117,0.1172,0.1175,0,0,0,0,0,0,0.1119,0.1117,0.11,0.1113,0.1112,0.1131,0.1118,0.1121,0.115,0.1128,0.113,0.1167,0.1131,0.1129,0.1153,0.1165,0.1125,0.1124,0.1167,0.1171,0.1174,0.1199,0,0,0,0,0,0,0.1119,0.1116,0.1126,0.1112,0.1112,0.1119,0.1118,0.1121,0.1151,0.1155,0.1153,0.1152,0.1132,0.1155,0.1151,0.1163,0.1123,0.1165,0.1169,0.1173,0.1195,0.1202,0.1208,0,0,0,0,0,0.1119,0.1115,0.1125,0.1125,0.1118,0.112,0.1121,0.1137,0.1152,0.1167,0.1178,0.1154,0.1178,0.1155,0.115,0.1161,0.1163,0.1168,0.1172,0.1192,0.1201,0.1208,0,0,0,0,0,0,0.1129,0.1117,0.1128,0.1122,0.1136,0.1127,0.1141,0.1155,0.1174,0.1187,0.117,0.117,0.1195,0.1186,0.1162,0.1193,0.117,0.1174,0.1187,0.1195,0.1201,0.1227,0.1122,0,0,0,0,0,0.1136,0.1134,0.1131,0.1136,0.1139,0.1149,0.1159,0.1172,0.118,0.1191,0.1189,0.1198,0.1203,0.1208,0.1206,0.1216,0.1231,0.1228,0.1235,0.124,0.1262,0.1316,0.1329,0.119,0.119,0.119,0,0,0.1144,0.1139,0.114,0.114,0.1147,0.1153,0.1158,0.1179,0.1194,0.1185,0.1209,0.1215,0.1214,0.1228,0.1239,0.1226,0.1283,0.1246,0.125,0.127,0.1323,0.1336,0.1348,0.1193,0.1193,0.1192,0,0,0.1151,0.1152,0.1153,0.1161,0.1181,0.118,0.1196,0.1203,0.122,0.1246,0.1246,0.1277,0.1274,0.128,0.1281,0.1329,0.1316,0.1327,0.1375,0.1426,0.1438,0.1448,0.1459,0.147,0.133,0.133,0.133,0,0.1177,0.1159,0.1159,0.1164,0.117,0.1195,0.1201,0.1217,0.1239,0.1257,0.1265,0.1308,0.1301,0.1331,0.1353,0.1341,0.1362,0.1334,0.1433,0.1444,0.1455,0.1463,0.1476,0.1332,0.1332,0.1332,0.1332,0,0.1169,0.1174,0.1175,0.1182,0.1191,0.1203,0.1217,0.1245,0.1272,0.1291,0.1344,0.1358,0.1394,0.139,0.1384,0.1451,0.1437,0.1431,0.1407,0.147,0.1475,0.1487,0.1335,0.1334,0.1334,0.1333,0,0,0.1187,0.1173,0.1183,0.1183,0.12,0.1203,0.1233,0.126,0.1299,0.134,0.1397,0.1421,0.146,0.1469,0.1473,0.1518,0.1591,0.1515,0.1517,0.1514,0.169,0.1513,0.1509,0.1607,0.161,0.1613,0.1654,0,0.1193,0.1185,0.1184,0.1196,0.1184,0.1214,0.1218,0.1256,0.1318,0.1381,0.1431,0.1492,0.1479,0.1523,0.1565,0.1584,0.1631,0.158,0.1641,0.1642,0.1468,0.152,0.1622,0.1663,0.1665,0.1667,0.1669,0,0.1186,0.1176,0.1171,0.1166,0.1166,0.119,0.1234,0.1257,0.1347,0.1398,0.1497,0.1556,0.1633,0.1633,0.1707,0.1679,0.1705,0.1717,0.1718,0.1559,0.1489,0.1596,0.1691,0.1689,0.1687,0.1686,0.1685,0,0.1169,0.1174,0.1165,0.1167,0.1162,0.1187,0.1209,0.1273,0.1299,0.1462,0.1539,0.1623,0.1696,0.1748,0.1777,0.1766,0.1851,0.183,0.1695,0.1681,0.1815,0.1804,0.1919,0.1919,0.1919,0.1919,0.1919,0,0.1154,0.116,0.1164,0.1165,0.1147,0.1174,0.1219,0.1259,0.135,0.1376,0.1569,0.1636,0.1742,0.1802,0.1813,0.1768,0.188,0.1715,0.169,0.1821,0.181,0.1822,0.181,0.192,0.192,0.192,0.1919,0,0.1138,0.114,0.1126,0.1134,0.1136,0.1137,0.1192,0.1206,0.1346,0.1413,0.1475,0.1656,0.1711,0.1777,0.1843,0.179,0.1783,0.1753,0.1874,0.1853,0.1569,0.1559,0.1597,0.1591,0.1586,0.1582,0.1579,0,0.1118,0.1111,0.1104,0.1077,0.1093,0.1115,0.1084,0.1173,0.1192,0.1388,0.1382,0.1546,0.1631,0.1627,0.1683,0.1676,0.1665,0.1671,0.1638,0.1569,0.1542,0.1539,0.1535,0.1571,0.157,0.1568,0.1567,0,0.1084,0.1097,0.1081,0.1018,0.0992,0.0959,0.0965,0.098,0.1059,0.1198,0.1299,0.1399,0.1456,0.1512,0.1525,0.1521,0.1666,0.1621,0.1631,0.1599,0.1539,0.1516,0.1518,0.1551,0.1553,0.1555,0.1555,0,0.1059,0.1034,0.1008,0.0924,0.0875,0.0801,0.0846,0.0856,0.0889,0.1083,0.1092,0.1291,0.1409,0.1429,0.1431,0.1409,0.1383,0.1369,0.1392,0.1411,0.1325,0.1219,0.1123,0,0,0,0,0,0.1026,0.0969,0.0903,0.0772,0.0711,0.0694,0.0716,0.0769,0.086,0.0867,0.0983,0.1035,0.1123,0.1243,0.1174,0.1291,0.1354,0.1205,0.134,0.1458,0.1477,0.139,0,0,0,0,0,0,0.0993,0.0961,0.0875,0.0645,0.0548,0.0465,0.0507,0.0581,0.062,0.0762,0.0827,0.093,0.1031,0.1112,0.1137,0.115,0.1208,0.1283,0.128,0.1447,0.1465,0.148,0.1397,0,0,0,0,0]},{"header":{"parameterUnit":"m.s-1","parameterCategory":2,"la1":30.2991,"la2":30.254,"lo1":-89.0895,"lo2":-89.0444,"dy":0.0017,"dx":0.0017,"nx":28,"ny":28,"refTime":"2025-03-19T09:00:00:Z","depth":"4","parameterNumber":3,"parameterNumberName":"V-component_of_CURRENTS"},"data":[0,0,0,0,0,0,0,0,0,0,0,0,0,0,0,0,0,0,0,0,0,0,0,0,0,0,0,0,0,0,0,0,0,0,0,0,0,0,0,0,0,0,0,0,0,0,0,0,0,0,0,0,0,0,0,0,0,0,0.0013,0.0013,0,0.0012,0.0012,0.0012,0.0016,0.0017,0.0017,0.0017,-0.0002,-0.0003,-0.0004,0,0,0,0,0,0,0,0,0,0,0,0,0,0.0013,0.0013,0.0012,0.0013,0.0013,0.0012,0.0012,0.0012,0.0016,0.0017,0.0017,0.0017,-0.0002,-0.0003,-0.0004,0,0,0,0,0,0,0,0,0,0,0,0,0,0.0011,0.0013,0.0012,0.0016,0.0017,0.0012,0.0012,0.0012,0.0016,0.0017,0.0017,0.0018,-0.0002,-0.0003,-0.0004,-0.0019,0,0,-0.0008,-0.0008,0,0,0,0,0,0,0,0,0.0011,0.0011,0.0015,0.0016,0.0016,0.0016,0.0005,0.0001,0.0016,0.0015,0.0017,0.0018,0.0003,0.0001,-0.0002,-0.002,-0.0021,-0.0008,-0.0008,-0.0009,-0.0009,0,0,0,0,0,0,0,0.0012,0.0011,0.0011,0.0016,0.0016,0.0017,0.0017,0.0004,0.0005,0.0015,0.0016,0.0018,0.0003,-0.0001,-0.0002,-0.0022,-0.0008,-0.0009,-0.0009,-0.001,-0.0034,-0.0034,0,0,0,0,0,0,0.0015,0.0011,0.0011,0.0011,0.0017,0.0017,0.0017,0.0015,0.0005,0.0005,0.0018,0.0018,0.0001,-0.0001,-0.0003,-0.0001,-0.0009,-0.001,-0.0011,-0.0034,-0.0034,-0.0034,0,0,0,0,0,0,0.0015,0.0014,0.0011,0.0013,0.0013,0.0016,0.0014,0.0014,0.0016,0.0008,0.0007,0.002,0.0001,-0.0001,-0.0003,-0.0002,-0.0011,-0.0012,-0.0034,-0.0034,-0.0034,-0.001,0,0,0,0,0,0,0.0014,0.0014,0.0015,0.0013,0.0013,0.0013,0.0014,0.0014,0.0018,0.0018,0.001,0.0008,0.0002,-0.0001,-0.0004,-0.0004,-0.0013,-0.0035,-0.0034,-0.0034,-0.0011,-0.0009,-0.0008,0,0,0,0,0,0.0014,0.0011,0.0015,0.0015,0.0013,0.0014,0.0014,0.0017,0.0017,0.0019,0.0018,0.0009,-0.0002,-0.0001,-0.0005,-0.0006,-0.0035,-0.0034,-0.0034,-0.0012,-0.0009,-0.0008,0,0,0,0,0,0,0.0015,0.0011,0.0015,0.0012,0.0017,0.0015,0.0017,0.0018,0.0017,0.0019,0.0011,0.0009,0.0006,-0.0003,-0.0002,-0.0013,-0.0021,-0.0022,-0.0003,-0.0001,0.0001,0.0006,-0.0014,0,0,0,0,0,0.0015,0.001,0.0013,0.0012,0.0014,0.0016,0.0017,0.002,0.0019,0.002,0.0015,0.0008,0.0001,-0.0001,-0.001,-0.0015,-0.0027,-0.0018,-0.0017,-0.0015,-0.0014,-0.0023,-0.0022,-0.0034,-0.0034,-0.0034,0,0,0.0018,0.0013,0.0014,0.0012,0.0014,0.0019,0.0017,0.002,0.0026,0.0016,0.0021,0.0013,0.0001,-0.0002,-0.0004,-0.0007,-0.002,-0.0015,-0.0014,-0.0013,-0.0023,-0.0021,-0.002,-0.0034,-0.0034,-0.0034,0,0,0.002,0.0016,0.0015,0.0018,0.0022,0.0022,0.0024,0.0026,0.003,0.0032,0.0027,0.0022,0.0012,0.0007,0.0001,0.0005,-0.0012,0.0,0.0014,0.0005,0.0006,0.0007,-0.0012,-0.0013,0.0003,0.0003,0.0003,0,0.0029,0.0025,0.0018,0.0019,0.0026,0.0024,0.0034,0.0033,0.0036,0.0041,0.0038,0.0027,0.0015,0.0014,0.0016,0.0008,-0.0001,0.0009,0.0008,0.0009,0.0009,-0.0011,-0.0012,0.0004,0.0004,0.0004,0.0003,0,0.0032,0.0033,0.0033,0.0035,0.0038,0.0045,0.0047,0.0052,0.0054,0.0056,0.0057,0.0044,0.0042,0.0032,0.0025,0.0023,0.0013,0.0011,0.0005,0.0012,-0.001,-0.0012,0.0005,0.0005,0.0005,0.0004,0,0,0.0055,0.0039,0.0044,0.0051,0.0049,0.0058,0.0062,0.0073,0.0087,0.0078,0.0093,0.0073,0.007,0.0063,0.0052,0.004,0.0029,0.0029,0.0028,0.0013,0.0005,0.0012,0.001,0.0031,0.0031,0.0031,-0.0013,0,0.007,0.007,0.0062,0.008,0.0084,0.0085,0.009,0.0097,0.0105,0.0117,0.01,0.0107,0.0081,0.0086,0.0069,0.004,0.0026,0.0041,-0.0002,-0.0004,0.0005,0.0009,0.0031,-0.0015,-0.0015,-0.0016,-0.0016,0,0.0088,0.0082,0.0091,0.01,0.0105,0.0117,0.014,0.0145,0.0151,0.016,0.0161,0.0152,0.0132,0.0116,0.0062,0.0075,0.0044,0.0017,0.0014,0.0012,0.0,-0.0023,-0.002,-0.0019,-0.0019,-0.0019,-0.0019,0,0.0111,0.0115,0.0122,0.0124,0.0125,0.0142,0.0149,0.0159,0.0174,0.0193,0.022,0.0185,0.019,0.0133,0.0079,0.0072,0.0023,0.0006,-0.002,-0.002,-0.0025,-0.0025,-0.0024,-0.0024,-0.0023,-0.0023,-0.0023,0,0.0132,0.0145,0.0135,0.0143,0.0165,0.016,0.0197,0.0205,0.022,0.0243,0.0247,0.0272,0.02,0.0168,0.0094,0.0033,0.0034,-0.0017,-0.0027,-0.0015,-0.0014,-0.0027,-0.0027,-0.0025,-0.0025,-0.0024,-0.0024,0,0.0159,0.0148,0.016,0.0165,0.0175,0.0191,0.0227,0.0259,0.0271,0.0306,0.0316,0.0333,0.0292,0.0214,0.0128,0.0074,-0.0002,-0.0019,-0.0001,-0.0009,-0.005,-0.0048,-0.0069,-0.0069,-0.0069,-0.0069,-0.0069,0,0.0167,0.0171,0.0183,0.0199,0.0208,0.0236,0.0268,0.0283,0.031,0.0344,0.0364,0.036,0.0353,0.0256,0.0159,0.0019,0.0007,-0.003,-0.0046,-0.0045,-0.0053,-0.0051,-0.0049,-0.0069,-0.0069,-0.0069,-0.0069,0,0.0184,0.0189,0.0196,0.0225,0.0263,0.032,0.0356,0.0355,0.0368,0.0392,0.0421,0.0388,0.0358,0.0266,0.0177,0.0073,-0.0014,-0.0031,-0.0032,-0.0048,-0.0045,-0.0053,-0.0051,-0.0069,-0.0069,-0.0069,-0.0069,0,0.0197,0.0204,0.0217,0.0241,0.0313,0.0381,0.0388,0.0421,0.0438,0.043,0.0439,0.0418,0.0398,0.0296,0.0201,0.0108,0.0072,0.0039,0.0033,0.0032,0.0073,0.0092,0.0105,0,0,0,0,0,0.0205,0.0212,0.0238,0.0274,0.036,0.0404,0.0449,0.0444,0.0422,0.0448,0.0432,0.0399,0.0307,0.0293,0.0198,0.0169,0.0035,0.0054,-0.0012,-0.0069,-0.0069,-0.0038,0,0,0,0,0,0,0.0207,0.023,0.0229,0.0317,0.0356,0.046,0.0489,0.0473,0.0472,0.044,0.0404,0.0382,0.0296,0.0362,0.0204,0.0177,0.0123,0.0012,0.001,-0.0069,-0.0069,-0.0069,-0.0037,0,0,0,0,0]}]]